Retour au catalogue

BREEZE-M R/B

ActifMEO
NORAD 38868·ROCKET BODY·🇷🇺 Russia

Lancé Oct 14, 2012 depuis Baikonur Cosmodrome

Loading…

Prochains Passages (prochaines 24 heures)

TLE

FraisSource: Space-Track

Époque: Sep 14, 2026, 05:09 UTC

1 38868U 12057B   26257.21519071 -.00000214  00000-0  00000-0 0  9994
2 38868  12.3354  55.4450 0515312  47.8300 314.4174  0.88386134 44615

Suivez BREEZE-M R/B en temps réel avec AllMySat

Download on the App Store